User: anonymous   Login
Location: Le Petit-Vavre
(46.5081°N, 1.5239°E)
Time: 14:50:53
(UTC+00:00)
Language:

SL-8 Rocket - Orbit

View from above orbital plane
View from above orbital plane
View from above satellite
View from above satellite

Ground track
Ground track

The orbit data is extracted from the following two-line orbital elements,

1 21088U 91006B   21128.87971899  .00000025  00000-0  97519-5 0  9990
2 21088  82.9459  43.2721 0021440 302.3691 125.8374 13.77163133521005
Epoch (UTC): 08 May 2021 21:06:47
Eccentricity: 0.0021440
inclination: 82.9459°
perigee height: 958 km
apogee height: 990 km
right ascension of ascending node: 43.2721°
argument of perigee: 302.3691°
revolutions per day: 13.77163133
mean anomaly at epoch: 125.8374°
orbit number at epoch: 52100

The dashed part of the orbit path shows where the satellite is in the earth's shadow,  

DLR